Weather History for KNDZ - January, 2013

Change the Weather History Date:

Wednesday, January 9, 2013

  Actual Average (KPNS) Record (KPNS)
Temperature  
Mean Temperature 64 °F 51 °F  
Max Temperature 68 °F 60 °F 77 °F (1957)
Min Temperature 60 °F 42 °F 15 °F (1886)
Degree Days  
Heating Degree Days 1 14  
Month to date heating degree days 126  
Since 1 July heating degree days 708  
Cooling Degree Days 0 0  
Month to date cooling degree days 0  
Year to date cooling degree days 0  
Growing Degree Days 14 (Base 50)    
Moisture  
Dew Point 60 °F    
Average Humidity 87    
Maximum Humidity 94    
Minimum Humidity 77    
Precipitation  
Precipitation 0.01 in 0.13 in 1.58 in (1892)
Month to date precipitation 1.21  
Year to date precipitation 1.21  
Snow  
Snow 0.00 in 0.00 in 0.00 in (2002)
Month to date snowfall 0.0  
Since 1 July snowfall 0.0  
Snow Depth -    
Sea Level Pressure  
Sea Level Pressure 30.21 in    
Wind  
Wind Speed 7 mph (East)    
Max Wind Speed 12 mph    
Max Gust Speed -    
Visibility 8 miles    
Events      
T = Trace of Precipitation, MM = Missing Value Source: NWS Daily Summary

Daily Weather History Graph

Daily Weather History Graph

Search for Another Location

Airport or City:

Trip Planner

Search our weather history database for the weather conditions in past years. The results will help you decide how hot, cold, wet, or windy it might be!

Date:

Astronomy

Jan. 09, 2013 Rise Set
Actual Time 6:46 AM CST 5:04 PM CST
Civil Twilight 6:20 AM CST 5:30 PM CST
Nautical Twilight 5:50 AM CST 6:00 PM CST
Astronomical Twilight 5:21 AM CST 6:29 PM CST
Moon 4:25 AM CST (1/9) 3:05 PM CST (1/9)
Length of Visible Light 11h 10m
Length of Day
10h 17m
Waning Crescent, 6% of the Moon is Illuminated
Jan 9
Waning Crescent
Jan 11
New
Jan 18
First Quarter
Jan 26
Full
Feb 3
Last Quarter

Hourly Weather History & Observations

Time (CST) Temp. Dew Point Humidity Pressure Visibility Wind Dir Wind Speed Gust Speed Precip Events Conditions
12:10 AM 62.6 °F 55.4 °F 77% 30.20 in 10.0 mi East 8.1 mph - N/A   Scattered Clouds
12:39 AM 62.6 °F 55.4 °F 77% 30.20 in 10.0 mi East 6.9 mph - N/A   Mostly Cloudy
12:54 AM 62.6 °F 55.4 °F 77% 30.20 in 10.0 mi East 6.9 mph - N/A   Overcast
12:56 AM 62.1 °F 55.0 °F 78% 30.16 in 10.0 mi East 8.1 mph - N/A   Overcast
1:56 AM 60.1 °F 55.0 °F 83% 30.16 in 10.0 mi NE 5.8 mph - N/A   Mostly Cloudy
2:26 AM 60.8 °F 55.4 °F 82% 30.20 in 10.0 mi ENE 6.9 mph - N/A   Overcast
2:56 AM 60.1 °F 55.9 °F 86% 30.17 in 10.0 mi NE 5.8 mph - N/A   Overcast
3:32 AM 60.8 °F 55.4 °F 82% 30.21 in 10.0 mi NE 6.9 mph - N/A   Overcast
3:56 AM 61.0 °F 55.9 °F 83% 30.17 in 10.0 mi NE 6.9 mph - N/A   Overcast
4:56 AM 61.0 °F 57.0 °F 87% 30.18 in 10.0 mi NE 5.8 mph - 0.00 in   Overcast
5:56 AM 61.0 °F 57.0 °F 87% 30.19 in 10.0 mi ENE 5.8 mph - N/A   Overcast
6:10 AM 60.8 °F 57.2 °F 88% 30.23 in 10.0 mi ENE 6.9 mph - N/A   Overcast
6:56 AM 61.0 °F 57.9 °F 90% 30.20 in 10.0 mi ENE 10.4 mph - N/A   Overcast
7:56 AM 62.1 °F 59.0 °F 90% 30.22 in 7.0 mi East 8.1 mph - N/A   Overcast
8:45 AM 62.6 °F 60.8 °F 94% 30.27 in 5.0 mi East 8.1 mph - N/A   Overcast
9:56 AM 64.9 °F 62.1 °F 90% 30.24 in 8.0 mi ENE 4.6 mph - N/A   Overcast
10:56 AM 66.0 °F 62.1 °F 87% 30.21 in 9.0 mi ESE 9.2 mph - N/A   Overcast
11:12 AM 66.2 °F 62.6 °F 88% 30.25 in 9.0 mi East 11.5 mph - N/A   Overcast
11:56 AM 66.9 °F 63.0 °F 87% 30.19 in 10.0 mi East 9.2 mph - N/A   Overcast
12:56 PM 68.0 °F 63.0 °F 84% 30.18 in 9.0 mi East 6.9 mph - N/A   Overcast
1:56 PM 68.0 °F 64.0 °F 87% 30.18 in 6.0 mi East 8.1 mph - N/A   Overcast
2:56 PM 68.0 °F 64.9 °F 90% 30.17 in 6.0 mi ESE 10.4 mph - N/A   Overcast
3:54 PM 66.2 °F 64.4 °F 94% 30.21 in 2.5 mi East 5.8 mph - N/A   Overcast
3:56 PM 66.9 °F 64.9 °F 93% 30.18 in 2.5 mi ESE 8.1 mph - N/A   Overcast
4:56 PM 66.9 °F 64.9 °F 93% 30.19 in 2.5 mi East 8.1 mph - 0.01 in   Overcast
5:08 PM 66.2 °F 64.4 °F 94% 30.23 in 4.0 mi ENE 6.9 mph - N/A   Overcast
5:56 PM 66.9 °F 64.9 °F 93% 30.20 in 5.0 mi East 8.1 mph - N/A   Overcast
6:14 PM 66.2 °F 64.4 °F 94% 30.24 in - North - - N/A   Unknown
6:56 PM - - N/A% 30.26 in - North - - N/A   Unknown
7:56 PM - - N/A% 30.26 in - North - - N/A   Unknown
8:56 PM - - N/A% 30.27 in - North - - N/A   Unknown
9:56 PM - - N/A% 30.28 in - North - - N/A   Unknown
10:56 PM - - N/A% 30.28 in - North - - N/A   Unknown
11:56 PM - - N/A% 30.27 in - North - - N/A   Unknown